Location: Meinert
(37.9441°N, 122.0275°W)
Time: 19:55:17
(UTC+00:00)

Meteor 1-23 Rocket - Pass Details

Date: 18 April 2024
Orbit: 842 x 882 km, 81.3° (Epoch: 23 May)

Event Time Altitude Azimuth Distance (km) Brightness Sun altitude
Rises 12:44:46 0° 183° (S) 3,435 7.1 -8.9°
Reaches altitude 10° 12:47:11 10° 181° (S) 2,495 6.4 -8.4°
Maximum altitude 12:52:51 77° 97° (E) 882 4.5 -7.4°
Drops below altitude 10° 12:58:28 10° 12° (NNE) 2,485 7.1 -6.3°
Sets 13:00:53 0° 11° (N) 3,419 7.8 -5.9°
